Regional Weather Roundup
Issued by NWS Newport/Morehead, NC

Current Version | Previous Version | Graphics & Text | Print | Product List | Glossary Off
Versions: 1 2 3 4 5 6 7 8 9 10 11 12 13 14 15 16 17 18 19 20 21 22 23 24 25 26 27 28 29 30 31 32 33 34 35 36 37 38 39 40 41 42 43 44 45 46 47 48 49 50

000
ASUS42 KMHX 220210
RWRMHX
WEATHER ROUNDUP FOR EASTERN NORTH CAROLINA
NATIONAL WEATHER SERVICE NEWPORT/MOREHEAD CITY NC
900 PM EST SUN DEC 21 2014

NOTE: "FAIR" INDICATES FEW OR NO CLOUDS BELOW 12,000 FEET
WITH NO SIGNIFICANT WEATHER AND/OR OBSTRUCTIONS TO VISIBILITY

NCZ015>017-031-032-045>047-102-103-220300-
NORTH COAST

CITY           SKY/WX    TMP DP  RH WIND       PRES   REMARKS
EDENTON          N/A     38  33  82 NE5       30.28S
ELIZABETH CITY CLEAR     41  33  73 N7        30.29S
KITTY HAWK     CLEAR     45  40  83 NE8       30.25F
MANTEO         CLEAR     45  40  83 NE12      30.26S

$$

NCZ045>047-081-094-103-104-220300-
CENTRAL COAST

CITY           SKY/WX    TMP DP  RH WIND       PRES   REMARKS
FRISCO         CLOUDY    47  45  93 NE10      30.22F
SWANQUARTER      N/A     45 N/A N/A NE8G17    30.21S

$$

NCZ095-097-098-100-101-220300-
SOUTHERN COAST

CITY           SKY/WX    TMP DP  RH WIND       PRES   REMARKS
BEAUFORT       CLOUDY    45  41  86 NE13      30.21S
CEDAR ISLAND     N/A     46 N/A N/A N18       30.27S
JACKSONVILLE   LGT RAIN  44  40  85 NE10      30.21F FOG
PINEY ISLAND   CLOUDY    48  39  71 NE14G23   30.22F
WILMINGTON     LGT RAIN  44  40  85 N8        30.20S


$$

NCZ011>013-027>030-043-044-078>080-089-090>093-098-220300-
COASTAL PLAIN

CITY           SKY/WX    TMP DP  RH WIND       PRES   REMARKS
AHOSKIE        PTCLDY    36  30  79 CALM      30.30R
CLINTON        CLOUDY    46  37  69 NE5       30.23F
ELIZABETHTOWN  CLOUDY    46  36  70 CALM      30.21F
GOLDSBORO      CLOUDY    45  40  82 NE10      30.22F
GREENVILLE     CLOUDY    43  36  75 E6        30.26F
HAVELOCK       LGT RAIN  45  39  79 NE10      30.24R
KENANSVILLE    CLOUDY    45  35  69 CALM      30.24F
KINSTON        CLOUDY    45  36  70 NE9       30.25S
NEW BERN       CLOUDY    46  37  71 NE9       30.25S
RICHLANDS      CLOUDY    43  37  81 NE9       30.23F
ROCKY MOUNT    CLOUDY    42  33  70 NE6       30.26S
WASHINGTON     CLOUDY    41  34  77 NE7       30.26S
WHITEVILLE     CLOUDY    44  41  87 NE5       30.19F

$$

AMZ130-135-150-152-154-156-158-170-250-252-270-ANZ085-086-088-633-658-670-220300-
MARINE OBSERVATIONS

STATION/POSITION TIME  TEMP    WIND        PRES    WAVE   SWELL
                       AIR SEA DIR/SP/G            HT/PER HT/PER
                 (UTC) (F)     (DEG/KT/KT) (MB)    (FT/S) (FT/S)
CHESAPEAKE LIGHT 0100   42      60/ 13/ 15 1026.7
64 E VA BEACH    0200   48 54   50/ 14/ 16 1024.9    2/ 3   2/10
DUCK             0200   45 46   40/ 15/ 18 1024.3
2 E DUCK         0200      46                N/A     3/ 4
10 NE DUCK       0200      50                N/A     3/ 4
OREGON INLET     0200   47 48   20/ 14/ 18 1024.3
13E OREGON INLT  0200      52                N/A     4/ 4
HATTERAS CG      0200   48 49   30/ 14/ 20 1023.5
DIAMOND BUOY     0200   56                 1022.2    4/ 5
17 S OCRACOKE    NOT AVBL
CAPE LOOKOUT     0100   47      20/ 19/ 22 1022.3
BEAUFORT LAB     0200   45 51   10/ 12/ 16 1022.0
30 SE NEW RIVER  0200   52 60   40/ 23/ 27 1021.8    6/ 6   2/10
5 SE WRIGHTSVLE  NOT AVBL
225 S CAPE HAT   0104   71 71   80/ 14/ 16 1018.8    6/ 6   3/ 7
41 SE CHARLESTON 0200   63 69   40/ 23/ 27 1017.9    7/ 7

$$



USA.gov is the U.S. government's official web portal to all federal, state and local government web resources and services.